| time (UTC) | temp F | wind direction | speed MPH | gust MPH | rain 1hr in | rain 24hr in | rain mn in | humidity % | barometer mb |
| 20260502221502 | 69 | 296 | 3.0 | 9.0 | 0.00 | 0.00 | 0.00 | 64 | 1015.1 |
| 20260502220003 | 68 | 34 | 3.0 | 9.0 | 0.00 | 0.00 | 0.00 | 64 | 1015.2 |
| 20260502214600 | 68 | 117 | 5.0 | 12.0 | 0.00 | 0.00 | 0.00 | 66 | 1015.3 |
| 20260502213105 | 69 | 110 | 4.0 | 12.0 | 0.00 | 0.00 | 0.00 | 61 | 1015.3 |
| 20260502211557 | 69 | 240 | 4.0 | 12.0 | 0.00 | 0.00 | 0.00 | 62 | 1015.5 |
| 20260502210054 | 68 | 23 | 6.0 | 13.0 | 0.00 | 0.00 | 0.00 | 64 | 1015.8 |
| 20260502204558 | 67 | 344 | 3.0 | 9.0 | 0.00 | 0.00 | 0.00 | 70 | 1015.9 |
| 20260502203112 | 66 | 15 | 1.0 | 4.0 | 0.00 | 0.00 | 0.00 | 70 | 1016.0 |
| 20260502201548 | 65 | 15 | 2.0 | 6.0 | 0.00 | 0.00 | 0.00 | 71 | 1016.2 |
| 20260502200041 | 64 | 10 | 4.0 | 8.0 | 0.00 | 0.00 | 0.00 | 73 | 1016.5 |
| 20260502194538 | 63 | 360 | 5.0 | 9.0 | 0.00 | 0.00 | 0.00 | 77 | 1016.6 |
| 20260502193046 | 63 | 326 | 2.0 | 5.0 | 0.00 | 0.00 | 0.00 | 77 | 1016.7 |
| 20260502191536 | 62 | 323 | 2.0 | 6.0 | 0.00 | 0.00 | 0.00 | 76 | 1016.8 |
| 20260502190028 | 61 | 333 | 1.0 | 5.0 | 0.00 | 0.00 | 0.00 | 80 | 1017.0 |
| 20260502184528 | 60 | 338 | 1.0 | 4.0 | 0.00 | 0.00 | 0.00 | 82 | 1017.1 |
| 20260502183026 | 58 | 346 | 1.0 | 5.0 | 0.00 | 0.00 | 0.00 | 84 | 1017.3 |
| 20260502181516 | 57 | 355 | 2.0 | 4.0 | 0.00 | 0.00 | 0.00 | 87 | 1017.3 |
| 20260502163011 | 52 | 285 | 2.0 | 7.0 | 0.00 | 0.00 | 0.00 | 92 | 1017.7 |
| 20260502161510 | 52 | 294 | 3.0 | 6.0 | 0.00 | 0.00 | 0.00 | 93 | 1017.6 |
| 20260502151508 | 50 | 241 | 0.0 | 3.0 | 0.00 | 0.00 | 0.00 | 94 | 1017.5 |
| 20260502123058 | 50 | 196 | 0.0 | 1.0 | 0.00 | 0.00 | 0.00 | 91 | 1017.4 |
| 20260502121557 | 50 | 195 | 0.0 | 3.0 | 0.00 | 0.00 | 0.00 | 91 | 1017.5 |
| 20260502114556 | 50 | 195 | 0.0 | 3.0 | 0.00 | 0.00 | 0.00 | 91 | 1017.5 |
| 20260502113108 | 50 | 195 | 1.0 | 4.0 | 0.00 | 0.00 | 0.00 | 90 | 1017.6 |
| 20260502111557 | 51 | 274 | 0.0 | 2.0 | 0.00 | 0.00 | 0.00 | 90 | 1017.6 |
| 20260502110053 | 51 | 274 | 1.0 | 4.0 | 0.00 | 0.00 | 0.00 | 90 | 1017.7 |
| 20260502104603 | 51 | 179 | 3.0 | 9.0 | 0.00 | 0.00 | 0.00 | 90 | 1018.2 |
| 20260502103050 | 51 | 201 | 5.0 | 10.0 | 0.00 | 0.00 | 0.00 | 90 | 1018.1 |
| 20260502101646 | 51 | 238 | 3.0 | 8.0 | 0.00 | 0.00 | 0.00 | 90 | 1017.4 |
| 20260502071519 | 55 | 192 | 3.0 | 6.0 | 0.00 | 0.00 | 0.00 | 82 | 1017.2 |
| 20260502070030 | 56 | 240 | 3.0 | 7.0 | 0.00 | 0.00 | 0.00 | 81 | 1017.1 |
| 20260502064517 | 57 | 217 | 2.0 | 7.0 | 0.00 | 0.00 | 0.00 | 80 | 1017.0 |
| 20260502063020 | 57 | 205 | 4.0 | 9.0 | 0.00 | 0.00 | 0.00 | 79 | 1017.0 |
| 20260502061516 | 58 | 277 | 3.0 | 10.0 | 0.00 | 0.00 | 0.00 | 79 | 1016.9 |
| 20260502060027 | 58 | 250 | 4.0 | 10.0 | 0.00 | 0.00 | 0.00 | 78 | 1016.8 |
| 20260502054517 | 58 | 262 | 5.0 | 12.0 | 0.00 | 0.00 | 0.00 | 77 | 1016.7 |
| 20260502053012 | 58 | 271 | 5.0 | 13.0 | 0.00 | 0.00 | 0.00 | 75 | 1016.5 |
| 20260502051512 | 58 | 12 | 1.0 | 3.0 | 0.00 | 0.00 | 0.00 | 72 | 1016.5 |
| 20260502050018 | 58 | 12 | 0.0 | 2.0 | 0.00 | 0.00 | 0.00 | 71 | 1016.3 |
| 20260502044515 | 59 | 12 | 1.0 | 2.0 | 0.00 | 0.00 | 0.00 | 71 | 1016.2 |
| 20260502043010 | 59 | 12 | 0.0 | 3.0 | 0.00 | 0.00 | 0.00 | 70 | 1016.0 |
| 20260502041521 | 59 | 12 | 1.0 | 2.0 | 0.00 | 0.00 | 0.00 | 69 | 1016.0 |
| 20260502040016 | 60 | 12 | 0.0 | 2.0 | 0.00 | 0.00 | 0.00 | 68 | 1015.8 |
| 20260502034508 | 60 | 12 | 2.0 | 4.0 | 0.00 | 0.00 | 0.00 | 68 | 1015.6 |
| 20260502033015 | 61 | 12 | 2.0 | 5.0 | 0.00 | 0.00 | 0.00 | 67 | 1015.5 |
| 20260502031506 | 62 | 12 | 0.0 | 3.0 | 0.00 | 0.00 | 0.00 | 66 | 1015.2 |
| 20260502030006 | 63 | 12 | 0.0 | 5.0 | 0.00 | 0.00 | 0.00 | 64 | 1015.2 |
| 20260502024506 | 64 | 12 | 2.0 | 4.0 | 0.00 | 0.00 | 0.00 | 62 | 1015.0 |
| 20260502023015 | 64 | 12 | 0.0 | 4.0 | 0.00 | 0.00 | 0.00 | 61 | 1014.9 |
| 20260502021505 | 65 | 12 | 2.0 | 9.0 | 0.00 | 0.00 | 0.00 | 59 | 1014.9 |
| 20260502020004 | 66 | 22 | 1.0 | 11.0 | 0.00 | 0.00 | 0.00 | 58 | 1014.8 |
| 20260502014502 | 66 | 53 | 2.0 | 6.0 | 0.00 | 0.00 | 0.00 | 58 | 1014.9 |
| 20260502013003 | 68 | 55 | 1.0 | 5.0 | 0.00 | 0.00 | 0.00 | 57 | 1014.8 |
| 20260502011502 | 68 | 56 | 1.0 | 4.0 | 0.00 | 0.00 | 0.00 | 57 | 1014.9 |
| 20260502004600 | 69 | 57 | 3.0 | 6.0 | 0.00 | 0.00 | 0.00 | 56 | 1015.0 |
| 20260502003101 | 70 | 53 | 3.0 | 7.0 | 0.00 | 0.00 | 0.00 | 54 | 1014.9 |
| 20260502001605 | 70 | 59 | 2.0 | 5.0 | 0.00 | 0.00 | 0.00 | 54 | 1015.0 |
| 20260502000108 | 70 | 59 | 2.0 | 5.0 | 0.00 | 0.00 | 0.00 | 57 | 1015.0 |
| 20260501234557 | 69 | 59 | 1.0 | 5.0 | 0.00 | 0.00 | 0.00 | 58 | 1014.9 |
| 20260501233117 | 70 | 59 | 2.0 | 6.0 | 0.00 | 0.00 | 0.00 | 57 | 1015.0 |
| 20260501231624 | 70 | 59 | 2.0 | 7.0 | 0.00 | 0.00 | 0.00 | 59 | 1015.0 |
| 20260501230116 | 72 | 54 | 3.0 | 6.0 | 0.00 | 0.00 | 0.00 | 55 | 1015.4 |
| 20260501224556 | 71 | 46 | 3.0 | 5.0 | 0.00 | 0.00 | 0.00 | 56 | 1015.4 |
| 20260501223053 | 70 | 46 | 1.0 | 4.0 | 0.00 | 0.00 | 0.00 | 53 | 1015.5 |